{"data":{"norad_id":57643,"epoch":"2026-05-25T00:37:08.937696Z","epoch_age_seconds":72031,"freshness":"FRESH","line1":"1 57643U 23122M   26145.02579789  .00000087  00000+0  12708-4 0  9996","line2":"2 57643  43.0052  21.2166 0001567 269.5096  90.5576 15.27578343153887","mean_motion":15.27578343,"eccentricity":0.0001567,"inclination_deg":43.0052,"raan_deg":21.2166,"arg_perigee_deg":269.5096,"mean_anomaly_deg":90.5576,"bstar":1.2708e-5,"rev_number":15388,"period_min":94.266850967001,"perigee_km":481.9789090595,"apogee_km":484.12920633698,"semimajor_km":6861.1910576982,"source":"CELESTRAK","updated_at":"2026-05-25T13:38:18.364456Z"}}